Flag Weather past 2 weeks in Waterbury, Connecticut, U.S.A.

Now
30 °F

Light snow. Ice fog.


Feels Like: 30 °F
Forecast: 21 / 34 °F
Wind: No wind

Location: Oxford

Current Time: Nov 27, 2014 at 7:47:16 PM

Latest Report: Nov 27, 2014 at 6:50 PM


Visibility: 6 mi

Pressure: 30.00 "Hg

Humidity: 75%

Dew point: 23 °F

Location of WaterburyLocation

Historic Weather in Waterbury — Graph

°F

Waterbury temperature yesterday

Maximum temperature yesterday: 43 °F (at 12:35 AM)
Minimum temperature yesterday: 32 °F (at 11:55 PM)
Average temperature yesterday: 37 °F

Past Weeks' High & Low Weather Summary

 TemperatureHumidityPressure
High64 °F (Nov 25, 12:55 AM)100% (Nov 26, 11:45 AM)30.44 "Hg (Nov 26, 11:45 AM)
Low18 °F (Nov 19, 6:55 AM)31% (Nov 18, 1:50 PM)29.48 "Hg (Nov 17, 7:50 PM)
Average35 °F58%30.03 "Hg
* Reported Nov 12 6:52 PM — Nov 27 5:50 PM, Waterbury, Weather by CustomWeather, © 2014

Note: Actual official high and low records may vary slightly from our data, if they occured in-between our weather recording intervals... More about our weather records

Advertising

Waterbury weather history for previous 24 hours

 ConditionsComfort  
Time TempWeatherWind HumidityBarometerVisibility
5:50 PM
Nov 27
30 °FOvercast.N/A75%29.99 "Hg10 mi
4:52 PM30 °FMostly cloudy.No wind75%29.98 "Hg10 mi
3:52 PM30 °FCloudy.5 mph80%29.97 "Hg10 mi
2:52 PM32 °FLight snow. More clouds than sun.5 mph75%29.96 "Hg7 mi
1:52 PM32 °FMore clouds than sun.5 mph75%29.95 "Hg10 mi
12:52 PM32 °FLight snow. Overcast.5 mph75%29.96 "Hg5 mi
11:52 AM32 °FOvercast.6 mph75%29.96 "Hg10 mi
10:50 AM30 °FMostly cloudy.7 mph80%29.97 "Hg10 mi
9:50 AM30 °FMostly cloudy.7 mph75%29.98 "Hg10 mi
8:55 AM30 °FCloudy.6 mph75%29.97 "Hg10 mi
7:50 AM28 °FBroken clouds.7 mph74%29.95 "Hg10 mi
6:50 AM28 °FPassing clouds.6 mph74%29.91 "Hg10 mi
5:50 AM30 °FPartly cloudy.5 mph86%29.89 "Hg10 mi
5:35 AM30 °FPassing clouds.3 mph75%29.89 "Hg10 mi
5:15 AM30 °FMostly cloudy.3 mph75%29.88 "Hg10 mi
4:55 AM30 °FMostly cloudy.5 mph75%29.88 "Hg10 mi
4:35 AM30 °FMostly cloudy.3 mph80%29.87 "Hg10 mi
4:15 AM30 °FMostly cloudy.5 mph80%29.87 "Hg10 mi
3:55 AM30 °FOvercast.5 mph80%29.85 "Hg10 mi
3:35 AM30 °FOvercast.8 mph80%29.85 "Hg10 mi
3:15 AM30 °FOvercast.7 mph80%29.85 "Hg10 mi
2:55 AM30 °FPartly cloudy.8 mph80%29.85 "Hg10 mi
2:35 AM30 °FMostly cloudy.8 mph80%29.83 "Hg10 mi
2:15 AM30 °FOvercast.8 mph80%29.83 "Hg10 mi
1:55 AM32 °FPartly cloudy.7 mph75%29.81 "Hg10 mi
1:35 AM32 °FMostly cloudy.7 mph80%29.81 "Hg10 mi
1:15 AM32 °FMostly cloudy.10 mph75%29.79 "Hg10 mi
12:55 AM32 °FMostly cloudy.12 mph80%29.79 "Hg10 mi
12:35 AM32 °FMostly cloudy.13 mph80%29.78 "Hg9 mi
12:15 AM34 °FMostly cloudy.12 mph75%29.78 "Hg7 mi
11:55 PM
Nov 26
32 °FOvercast.15 mph75%29.77 "Hg4 mi
11:35 PM34 °FMostly cloudy.12 mph75%29.77 "Hg4 mi
11:15 PM34 °FOvercast.14 mph75%29.76 "Hg3 mi
10:55 PM34 °FLow clouds.14 mph75%29.74 "Hg2 mi
10:35 PM34 °FMostly cloudy.14 mph75%29.74 "Hg2 mi
9:55 PM34 °FMostly cloudy.16 mph75%29.74 "Hg2 mi
9:35 PM34 °FMostly cloudy.14 mph75%29.74 "Hg2 mi
9:15 PM34 °FMostly cloudy.17 mph75%29.74 "Hg2 mi
8:52 PM34 °FLight rain. Fog.N/A75%29.75 "Hg2 mi
Weather by CustomWeather, © 2014

See weather overviewHow to use our weather pages